Frankfort, MI

9:13 AM EDT on September 30, 2016 (GMT -0400)
Frankfort

Weather History for KFKS - January, 2014

Change the Weather History Date:

Monday, January 27, 2014

  Actual Average (KTVC) Record (KTVC)
Temperature  
Mean Temperature 6 °F 21 °F  
Max Temperature 10 °F 28 °F 55 °F (1916)
Min Temperature 0 °F 14 °F -19 °F (1918)
Degree Days  
Heating Degree Days 60 44  
Month to date heating degree days 1173  
Since 1 July heating degree days 3981  
Moisture  
Dew Point -4 °F    
Average Humidity 72    
Maximum Humidity 83    
Minimum Humidity 63    
Precipitation  
Precipitation 0.00 in 0.08 in 1.23 in (1996)
Month to date precipitation 2.51  
Year to date precipitation 2.51  
Sea Level Pressure  
Sea Level Pressure 29.97 in    
Wind  
Wind Speed 19 mph (NW)    
Max Wind Speed 28 mph    
Max Gust Speed 44 mph    
Visibility 2 miles    
Events Snow    
T = Trace of Precipitation, MM = Missing Value Source: NWS Daily Summary

Daily Weather History Graph

Daily Weather History Graph

Search for Another Location

Airport or City:

Trip Planner

Search our weather history database for the weather conditions in past years. The results will help you decide how hot, cold, wet, or windy it might be!

Date:

Astronomy

Jan. 27, 2014 Rise Set
Actual Time 8:08 AM EST 5:46 PM EST
Civil Twilight 7:37 AM EST 6:18 PM EST
Nautical Twilight 7:02 AM EST 6:53 PM EST
Astronomical Twilight 6:27 AM EST 7:27 PM EST
Moon 4:51 AM EST (1/27) 2:30 PM EST (1/27)
Length of Visible Light 10h 40m
Length of Day
9h 37m
Waning Crescent, 15% of the Moon is Illuminated
Jan 27
Waning Crescent
Jan 30
New
Feb 6
First Quarter
Feb 14
Full
Feb 22
Last Quarter

Hourly Weather History & Observations

Time (EST) Temp. Windchill Dew Point Humidity Pressure Visibility Wind Dir Wind Speed Gust Speed Precip Events Conditions
12:12 AM 11.3 °F -6.0 °F 7.0 °F 83% 29.50 in 0.8 mi NNW 17.3 mph 31.1 mph N/A Snow Snow
12:32 AM 10.8 °F -10.2 °F 5.7 °F 80% 29.52 in 0.5 mi NW 26.5 mph 35.7 mph N/A Snow Snow
12:52 AM 10.8 °F -7.7 °F 4.1 °F 75% 29.54 in 1.2 mi NNW 19.6 mph 33.4 mph N/A Snow Light Snow
1:12 AM 9.5 °F -10.3 °F 3.4 °F 76% 29.56 in 0.5 mi NW 21.9 mph 38.0 mph N/A Snow Snow
1:33 AM 9.9 °F -9.3 °F 4.8 °F 80% 29.59 in 1.0 mi NW 20.7 mph 36.8 mph N/A Snow Light Snow
1:53 AM 9.0 °F -12.6 °F 4.1 °F 81% 29.60 in 1.0 mi NW 26.5 mph 34.5 mph N/A Snow Light Snow
2:13 AM 8.2 °F -11.9 °F 1.8 °F 75% 29.62 in 2.5 mi NW 21.9 mph 34.5 mph N/A   Haze
2:33 AM 7.7 °F -13.1 °F 1.9 °F 77% 29.65 in 1.2 mi NW 23.0 mph 35.7 mph N/A Snow Light Snow
2:53 AM 7.2 °F -12.9 °F 0.9 °F 75% 29.67 in 1.2 mi NW 20.7 mph 43.7 mph N/A Snow Light Snow
3:13 AM 6.8 °F -14.7 °F -0.2 °F 73% 29.69 in 1.2 mi NW 24.2 mph 33.4 mph N/A Snow Light Snow
3:33 AM 6.3 °F -16.6 °F -0.9 °F 72% 29.71 in 1.0 mi NW 27.6 mph 42.6 mph N/A Snow Light Snow
3:53 AM 5.4 °F -15.3 °F -2.6 °F 70% 29.73 in 1.0 mi NW 20.7 mph 40.3 mph N/A Snow Light Snow
4:14 AM 5.0 °F -16.2 °F -3.3 °F 69% 29.75 in 1.2 mi NW 21.9 mph 42.6 mph N/A Snow Light Snow
4:34 AM 4.6 °F -16.7 °F -2.4 °F 73% 29.77 in 1.2 mi NW 21.9 mph 41.4 mph N/A Snow Light Snow
4:54 AM 4.1 °F -15.9 °F -4.4 °F 68% 29.79 in 3.0 mi NNW 18.4 mph 33.4 mph N/A   Haze
5:14 AM 3.9 °F -18.1 °F -4.2 °F 69% 29.81 in 3.0 mi NW 23.0 mph 33.4 mph N/A   Haze
5:34 AM 3.6 °F -17.1 °F -4.7 °F 68% 29.83 in 2.5 mi NNW 19.6 mph 33.4 mph N/A   Haze
5:54 AM 3.2 °F -18.1 °F -5.1 °F 68% 29.84 in 2.5 mi NW 20.7 mph 33.4 mph N/A   Haze
6:14 AM 3.2 °F -18.6 °F -5.1 °F 68% 29.85 in 3.0 mi NW 21.9 mph 27.6 mph N/A   Haze
6:34 AM 3.0 °F -18.3 °F -5.4 °F 68% 29.87 in 5.0 mi NW 20.7 mph 31.1 mph N/A   Haze
6:55 AM 2.7 °F -15.3 °F -6.2 °F 67% 29.89 in 5.0 mi NW 13.8 mph 27.6 mph N/A   Haze
7:15 AM 2.3 °F -17.1 °F -7.4 °F 64% 29.90 in 5.0 mi NNW 16.1 mph 26.5 mph N/A   Haze
7:35 AM 2.7 °F -17.8 °F -5.1 °F 70% 29.92 in 3.0 mi NW 18.4 mph 26.5 mph N/A   Haze
7:55 AM 2.3 °F -18.8 °F -5.3 °F 71% 29.93 in 2.0 mi NW 19.6 mph 28.8 mph N/A Snow Light Snow
8:15 AM 2.1 °F -15.2 °F -5.1 °F 72% 29.94 in 1.5 mi NW 12.7 mph 26.5 mph N/A Snow Light Snow
8:35 AM 1.8 °F -20.0 °F -4.9 °F 74% 29.94 in 0.8 mi NW 20.7 mph 26.5 mph N/A Snow Light Snow
8:55 AM 1.9 °F -21.2 °F -6.7 °F 67% 29.95 in 2.0 mi NW 24.2 mph 28.8 mph N/A   Haze
9:16 AM 1.8 °F -20.5 °F -6.3 °F 69% 29.97 in 1.5 mi NW 21.9 mph 31.1 mph N/A   Haze
9:36 AM 1.4 °F -19.9 °F -7.8 °F 65% 29.98 in 1.8 mi WNW 19.6 mph 32.2 mph N/A   Haze
9:56 AM 1.4 °F -19.4 °F -8.0 °F 65% 29.99 in 2.0 mi NW 18.4 mph 29.9 mph N/A   Haze
10:16 AM 1.2 °F -18.4 °F -8.7 °F 63% 30.00 in 2.5 mi NW 16.1 mph 31.1 mph N/A   Haze
10:36 AM 1.4 °F -19.4 °F -8.7 °F 63% 30.01 in 3.0 mi NW 18.4 mph 28.8 mph N/A   Haze
10:56 AM 1.0 °F -20.9 °F -9.0 °F 63% 30.02 in 3.0 mi WNW 20.7 mph 27.6 mph N/A   Haze
11:16 AM 0.9 °F -20.7 °F -8.3 °F 65% 30.03 in 1.8 mi NW 19.6 mph 27.6 mph N/A   Haze
11:36 AM 0.9 °F -21.2 °F -8.3 °F 65% 30.03 in 1.8 mi NW 20.7 mph 26.5 mph N/A   Haze
11:51 AM 1.0 °F -19.9 °F -8.3 °F 65% 30.04 in 2.5 mi NW 18.4 mph 25.3 mph N/A Snow Light Snow
12:11 PM 1.2 °F -18.4 °F -7.8 °F 66% 30.04 in 2.5 mi NW 16.1 mph 20.7 mph N/A Snow Light Snow
12:31 PM 1.2 °F -19.1 °F -5.6 °F 73% 30.04 in 1.0 mi NW 17.3 mph 21.9 mph N/A Snow Light Snow
12:52 PM 1.0 °F -16.6 °F -8.0 °F 66% 30.05 in 1.5 mi NW 12.7 mph 20.7 mph N/A Snow Light Snow
1:12 PM 1.2 °F -17.1 °F -6.0 °F 72% 30.05 in 0.8 mi NW 13.8 mph 21.9 mph N/A Snow Light Snow
1:32 PM 1.2 °F -18.4 °F -7.2 °F 68% 30.05 in 1.2 mi NW 16.1 mph 25.3 mph N/A Snow Light Snow
1:52 PM 1.2 °F -18.4 °F -6.5 °F 70% 30.05 in 1.2 mi NW 16.1 mph 19.6 mph N/A Snow Light Snow
2:12 PM 1.2 °F -14.7 °F -6.0 °F 72% 30.05 in 1.0 mi NW 10.4 mph 19.6 mph N/A Snow Light Snow
2:32 PM 1.6 °F -18.0 °F -7.2 °F 67% 30.06 in 2.0 mi WNW 16.1 mph 23.0 mph N/A Snow Light Snow
2:52 PM 1.4 °F -18.8 °F -6.7 °F 69% 30.06 in 1.0 mi NW 17.3 mph 24.2 mph N/A Snow Light Snow
3:13 PM 1.4 °F -16.9 °F -8.5 °F 63% 30.08 in 5.0 mi NW 13.8 mph - N/A   Haze
3:33 PM 1.8 °F -16.4 °F -5.8 °F 71% 30.08 in 1.5 mi NW 13.8 mph 18.4 mph N/A Snow Light Snow
3:53 PM 1.9 °F -14.7 °F -5.6 °F 71% 30.09 in 1.5 mi NW 11.5 mph 20.7 mph N/A Snow Light Snow
4:13 PM 2.1 °F -16.6 °F -4.4 °F 74% 30.09 in 1.2 mi WNW 15.0 mph 19.6 mph N/A Snow Light Snow
4:33 PM 1.9 °F -16.2 °F -4.2 °F 76% 30.10 in 1.0 mi NW 13.8 mph 20.7 mph N/A Snow Light Snow
4:53 PM 1.8 °F -14.0 °F -6.2 °F 69% 30.11 in 2.0 mi WNW 10.4 mph 19.6 mph N/A Snow Light Snow
5:13 PM 1.4 °F -17.6 °F -4.9 °F 75% 30.11 in 1.2 mi West 15.0 mph 21.9 mph N/A Snow Light Snow
5:33 PM 1.9 °F -17.5 °F -4.7 °F 74% 30.12 in 1.2 mi WNW 16.1 mph 20.7 mph N/A Snow Light Snow
5:53 PM 2.1 °F -15.2 °F -4.2 °F 75% 30.12 in 1.2 mi WNW 12.7 mph 20.7 mph N/A Snow Light Snow
6:13 PM 2.3 °F -18.2 °F -4.0 °F 75% 30.13 in 2.5 mi NW 18.4 mph 23.0 mph N/A Snow Light Snow
6:34 PM 2.3 °F -17.7 °F -4.4 °F 74% 30.14 in 2.5 mi NW 17.3 mph 23.0 mph N/A Snow Light Snow
6:54 PM 2.3 °F -17.7 °F -4.5 °F 73% 30.15 in 4.0 mi NW 17.3 mph 23.0 mph N/A   Haze
7:14 PM 2.3 °F -16.4 °F -4.0 °F 75% 30.16 in 2.0 mi WNW 15.0 mph 20.7 mph N/A Snow Light Snow
7:34 PM 2.7 °F -15.3 °F -3.5 °F 76% 30.17 in 2.5 mi WNW 13.8 mph 18.4 mph N/A Snow Light Snow
7:54 PM 2.8 °F -15.0 °F -3.5 °F 75% 30.17 in 2.5 mi WNW 13.8 mph 21.9 mph N/A Snow Light Snow
8:14 PM 2.8 °F -15.7 °F -4.0 °F 73% 30.17 in 3.0 mi NW 15.0 mph 23.0 mph N/A   Haze
8:34 PM 2.8 °F -15.7 °F -3.8 °F 74% 30.18 in 2.0 mi NW 15.0 mph 25.3 mph N/A Snow Light Snow
8:54 PM 2.8 °F -15.0 °F -3.8 °F 74% 30.18 in 2.5 mi NW 13.8 mph 21.9 mph N/A   Haze
9:15 PM 3.2 °F -15.9 °F -2.4 °F 78% 30.19 in 1.8 mi NW 16.1 mph 23.0 mph N/A Snow Light Snow
9:35 PM 3.0 °F -16.7 °F -2.6 °F 78% 30.19 in 1.5 mi WNW 17.3 mph 20.7 mph N/A Snow Light Snow
9:55 PM 2.8 °F -15.7 °F -3.3 °F 76% 30.19 in 3.0 mi WNW 15.0 mph 23.0 mph N/A Snow Light Snow
10:15 PM 3.2 °F -14.6 °F -2.9 °F 76% 30.20 in 3.0 mi NW 13.8 mph 18.4 mph N/A Snow Light Snow
10:35 PM 3.2 °F -13.1 °F -3.1 °F 75% 30.20 in 3.0 mi NW 11.5 mph 20.7 mph N/A Snow Light Snow
10:55 PM 3.4 °F -15.0 °F -2.0 °F 78% 30.20 in 1.5 mi NW 15.0 mph 27.6 mph N/A Snow Light Snow
11:15 PM 3.6 °F -15.4 °F -2.4 °F 76% 30.20 in 2.5 mi WNW 16.1 mph - N/A Snow Light Snow
11:35 PM 3.7 °F -14.6 °F -2.2 °F 76% 30.20 in 2.5 mi NW 15.0 mph 20.7 mph N/A Snow Light Snow
11:55 PM 3.9 °F -12.2 °F -2.2 °F 76% 30.20 in 3.0 mi WNW 11.5 mph 19.6 mph N/A Snow Light Snow